Regional Weather Roundup
Issued by NWS Midland/Odessa, TX

Skip options and go directly to product.
Home | Oldest Version | Previous Version | Current Version | All | Graphics & Text | Save Text | Print | Product List | Glossary On

Skip product version selection by date and time.   
189
ASUS44 KMAF 061010
RWRMAF
MIDLAND AREA WEATHER ROUNDUP
NATIONAL WEATHER SERVICE MIDLAND TX
400 AM CST TUE DEC 06 2016

...IN SOUTHWEST TEXAS AND SOUTHEAST NEW MEXICO...

CITY           SKY/WX    TMP DP  RH WIND       PRES   REMARKS
ALPINE         PTCLDY    50  29  44 W15       30.02R
ANDREWS        FAIR      43  31  64 N18G24    29.91R WCI  34
ARTESIA        CLOUDY    41  28  60 N6        29.91R WCI  37
BIG SPRING     PTCLDY    46  32  57 NW20G28   29.91R WCI  39
CARLSBAD       CLOUDY    54  25  32 W17       29.87R
DRYDEN           N/A     52  40  63 W12       29.87R
FORT STOCKTON  PTCLDY    47  34  60 SW9       29.89R
GUAD PASS      CLOUDY    41  30  65 SW18      29.98R WCI  32
HOBBS          CLOUDY    41  27  56 N16       29.93R WCI  33
MARFA          CLEAR     31  26  82 NW6       30.00S WCI  25
MIDLAND AIRPK  PTCLDY    51  32  48 NW10      29.89R
MIDLAND INTL   PTCLDY    50  31  48 NW17      29.88R
ODESSA         PTCLDY    44  33  65 W8        29.87R WCI  39
PECOS          CLOUDY    50  36  57 W13       29.88R
PRESIDIO       FAIR      44  39  82 N3        29.96S
SEMINOLE       PTCLDY    40  21  45 N12G17    29.94R WCI  33
SNYDER         CLEAR     45  35  68 N22G29    29.86R WCI  36
WINK           PTCLDY    46  32  58 NE8       29.87R
$$
...OTHER STATIONS IN TEXAS...

CITY           SKY/WX    TMP DP  RH WIND       PRES   REMARKS
ABILENE        CLEAR     50  36  58 W17       29.76R
AMARILLO       CLOUDY    30  14  51 N28G36    29.96R WCI  15
AUSTIN         CLEAR     47  47 100 SW7       29.79F
BROWNSVILLE    CLEAR     50  48  93 CALM      29.90S
CORPUS CHRISTI PTCLDY    50  49  96 SW3       29.86R
DALLAS FTW     CLOUDY    50  48  93 CALM      29.74R
DEL RIO        CLEAR     40  40 100 NW5       29.85R WCI  37
EL PASO        PTCLDY    49  22  34 W12       29.95S
HOUSTON INT    PTCLDY    50  49  96 CALM      29.83F
LUBBOCK        MOCLDY    36  17  46 N20G33    29.90R WCI  25
SAN ANGELO     CLEAR     44  39  82 SW12      29.81R WCI  38
SAN ANTONIO    CLEAR     44  43  96 CALM      29.84F
WACO           CLEAR     44  44 100 SE7       29.75S
WICHITA FALLS  NOT AVBL
$$
...OTHER LOCATIONS IN NEW MEXICO...

CITY           SKY/WX    TMP DP  RH WIND       PRES   REMARKS
ALAMAGORDO     NOT AVBL
ALBUQUERQUE    CLOUDY    35  17  47 SE7       29.93F WCI  29
CANNON AFB     CLOUDY    29   8  41 N20       29.96R WCI  16
CLOVIS         CLOUDY    28   9  43 N25G31    29.96R WCI  14
HOLLOMAN AFB   CLOUDY    35  19  52 SE5       29.97R WCI  31
ROSWELL        PTCLDY    44  23  43 N16       29.89R WCI  37
RUIDOSO        CLOUDY    36  12  38 W6        29.97S WCI  31
SANTA FE       CLOUDY    33  13  43 CALM      29.91S
TRUTH OR CONSE MOCLDY    41  18  39 W5        29.94R WCI  38
TUCUMCARI      CLOUDY    31   7  36 NE10      30.01R WCI  22
$$